Hourly Data Report for July 06, 2019

PITT MEADOWS CS
BRITISH COLUMBIA
Current Station Operator: ECCC - MSC

49°12'29.964" N
122°41'24.076" W
5.00 m
1106178
71775
WMM

Download Data

Hourly Data (July 2019)
Hourly Data Report for July 6, 2019
TIME
LST
Temp Definition
°C
Dew Point Definition
°C
Rel Hum Definition
%
Precip. Amount Definition
mm

Wind Dir Definition
10's deg

Wind Spd Definition
km/h
Visibility Definition
km
Stn Press Definition
kPa
Hmdx Definition


Wind Chill Definition


Weather Definition


00:00 16.1 13.2 83 0.0 10 5   101.83     LegendNANA
01:00 15.8 12.9 83 0.0 9 4   101.83     LegendNANA
02:00 15.9 12.8 82 0.0 16 2   101.84     LegendNANA
03:00 15.3 12.2 82 0.0 17 3   101.85     LegendNANA
04:00 15.2 12.5 84 0.0 22 2   101.87     LegendNANA
05:00 14.7 12.4 86 0.0 11 4   101.86     LegendNANA
06:00 15.3 12.0 81 0.0 12 3   101.88     LegendNANA
07:00 15.5 11.7 78 0.0 12 4   101.88     LegendNANA
08:00 15.7 11.9 78 0.0 9 1   101.90     LegendNANA
09:00 16.5 11.6 73 0.0 3 5   101.89     LegendNANA
10:00 18.0 11.4 65 0.0 29 4   101.87     LegendNANA
11:00 18.2 12.0 67 0.0 31 7   101.88     LegendNANA
12:00 18.2 12.3 68 0.0 27 7   101.88     LegendNANA
13:00 18.8 11.6 63 0.0 27 7   101.88     LegendNANA
14:00 19.3 11.7 62 0.0 27 9   101.85     LegendNANA
15:00 18.5 11.7 65 0.2 26 12   101.84     LegendNANA
16:00 18.5 11.2 63 0.1 26 5   101.80     LegendNANA
17:00 18.7 10.9 60 0.0 31 6   101.75     LegendNANA
18:00 18.8 11.1 61 0.0 32 3   101.73     LegendNANA
19:00 18.9 10.5 58 0.0 32 2   101.70     LegendNANA
20:00 18.1 11.5 65 0.0 6 4   101.67     LegendNANA
21:00 17.3 12.3 72 0.0 4 3   101.69     LegendNANA
22:00 16.5 13.0 80 0.0 0 1   101.68     LegendNANA
23:00 16.4 13.5 83 0.0 3 2   101.67     LegendNANA

Notes on Data Quality.

Legend

  • E = Estimated
  • M = Missing
  • NA = Not Available*
  • [empty] = Indicates an unobserved value
Date modified: